Change the Weather History Date:

Sunday, October 16, 2011

  Actual Average Record
Temperature  
Mean Temperature 64 °F -  
Max Temperature 70 °F 66 °F 102 °F (2012)
Min Temperature 59 °F 55 °F 53 °F (2000)
Degree Days  
Heating Degree Days 1    
Growing Degree Days 14 (Base 50)    
Moisture  
Dew Point 57 °F    
Average Humidity 82    
Maximum Humidity 93    
Minimum Humidity 65    
Precipitation  
Precipitation 0.00 in - - ()
Sea Level Pressure  
Sea Level Pressure 30.01 in    
Wind  
Wind Speed - (North)    
Max Wind Speed -    
Max Gust Speed -    
Visibility 10 miles    
Events      
Averages and records for this station are not official NWS values.
T = Trace of Precipitation, MM = Missing Value Source: NWS Daily Summary

Daily Weather History Graph

Daily Weather History Graph

Search for Another Location

Airport or City:

Trip Planner

Search our weather history database for the weather conditions in past years. The results will help you decide how hot, cold, wet, or windy it might be!

Date:

Astronomy

Oct. 16, 2011 Rise Set
Actual Time 7:02 AM PDT 6:23 PM PDT
Civil Twilight 6:37 AM PDT 6:48 PM PDT
Nautical Twilight 6:09 AM PDT 7:17 PM PDT
Astronomical Twilight 5:40 AM PDT 7:45 PM PDT
Moon 9:26 PM PDT (10/16) 11:11 AM PDT (10/16)
Length of Visible Light 12h 10m
Length of Day
11h 20m
Waning Gibbous, 81% of the Moon is Illuminated
Oct 16
Waning Gibbous
Oct 19
Last Quarter
Oct 26
New
Nov 2
First Quarter
Nov 10
Full

Hourly Weather History & Observations

Time (PDT) Temp. Dew Point Humidity Pressure Visibility Wind Dir Wind Speed Gust Speed Precip Events Conditions
12:53 AM 59.0 °F 55.9 °F 90% 29.97 in 10.0 mi North - - N/A   Overcast
1:53 AM 59.0 °F 55.0 °F 87% 29.98 in 10.0 mi North - - N/A   Overcast
2:53 AM 59.0 °F 55.0 °F 87% 29.97 in 10.0 mi North - - N/A   Overcast
3:53 AM 59.0 °F 55.0 °F 87% 29.98 in 10.0 mi North - - N/A   Overcast
4:53 AM 60.1 °F 55.0 °F 83% 29.99 in 10.0 mi North - - N/A   Overcast
5:53 AM 60.1 °F 55.9 °F 86% 29.99 in 10.0 mi North - - N/A   Overcast
6:53 AM 60.1 °F 55.9 °F 86% 29.99 in 10.0 mi North - - N/A   Overcast
7:53 AM 60.1 °F 55.9 °F 86% 30.00 in 10.0 mi North - - N/A   Overcast
8:53 AM 62.1 °F 57.0 °F 84% 30.03 in 10.0 mi North - - N/A   Overcast
9:35 AM 62.6 °F 55.4 °F 77% 30.05 in 10.0 mi North - - N/A   Overcast
9:53 AM 64.0 °F 57.0 °F 78% 30.04 in 10.0 mi North - - N/A   Overcast
10:53 AM 66.0 °F 57.0 °F 73% 30.04 in 9.0 mi North - - N/A   Mostly Cloudy
11:02 AM 66.2 °F 57.2 °F 73% 30.05 in 9.0 mi North - - N/A   Scattered Clouds
11:53 AM 66.0 °F 57.0 °F 73% 30.04 in 10.0 mi North - - N/A   Clear
12:53 PM 66.9 °F 57.0 °F 70% 30.02 in 8.0 mi North - - N/A   Clear
1:53 PM 69.1 °F 57.0 °F 65% 30.00 in 10.0 mi North - - N/A   Clear
2:53 PM 69.1 °F 57.0 °F 65% 30.00 in 10.0 mi North - - N/A   Clear
3:53 PM 68.0 °F 57.0 °F 68% 29.99 in 10.0 mi North - - N/A   Clear
5:53 PM 62.1 °F 57.9 °F 86% 29.98 in 9.0 mi North - - N/A   Clear
6:53 PM 61.0 °F 57.0 °F 87% 29.98 in 10.0 mi North - - N/A   Clear
7:53 PM 60.1 °F 57.0 °F 90% 30.01 in 10.0 mi North - - N/A   Clear
8:53 PM 60.1 °F 57.0 °F 90% 30.01 in 10.0 mi North - - N/A   Clear
9:53 PM 60.1 °F 57.9 °F 93% 30.01 in 9.0 mi North - - N/A   Clear
10:53 PM 60.1 °F 57.9 °F 93% 30.02 in 8.0 mi North - - N/A   Clear
11:53 PM 60.1 °F 57.9 °F 93% 30.01 in 8.0 mi North - - N/A   Clear